• In Portugal
  • List of Countries
  • For 7 days
  • Water Temperature
  • Satellite Maps
  • Weather Map
  • Weather Widgets
  • user-avatar
    Login

    Hourly Weather Jablow

    Today, 24 June, Sunday

    Time Temperature Precipitation Wind Pressure Humidity
    00:00 +8°C° 0 mm 3 mps 717 mmHg 94%
    01:00 +8°C° 0 mm 2 mps 716 mmHg 95%
    02:00 +8°C° 0 mm 3 mps 716 mmHg 96%
    03:00 +8°C° 0 mm 3 mps 716 mmHg 96%
    04:00 +7°C° 0 mm 3 mps 716 mmHg 96%
    05:00 +8°C° 0.1 mm 3 mps 716 mmHg 93%
    06:00 +8°C° 0.1 mm 4 mps 716 mmHg 91%
    07:00 +10°C° 0.1 mm 4 mps 716 mmHg 88%
    08:00 +11°C° 0.2 mm 4 mps 716 mmHg 85%
    09:00 +10°C° 0.2 mm 5 mps 716 mmHg 82%
    10:00 +12°C° 0.2 mm 5 mps 716 mmHg 78%
    11:00 +12°C° 0.2 mm 5 mps 716 mmHg 75%
    12:00 +13°C° 0.2 mm 5 mps 716 mmHg 72%
    13:00 +14°C° 0.2 mm 5 mps 716 mmHg 69%
    14:00 +14°C° 0.1 mm 5 mps 716 mmHg 69%
    15:00 +14°C° 0.1 mm 6 mps 716 mmHg 69%
    16:00 +14°C° 0.1 mm 6 mps 716 mmHg 68%
    17:00 +13°C° 0 mm 5 mps 716 mmHg 72%
    18:00 +12°C° 0 mm 4 mps 716 mmHg 75%
    19:00 +12°C° 0 mm 4 mps 716 mmHg 79%
    20:00 +11°C° 0 mm 3 mps 716 mmHg 83%
    21:00 +10°C° 0 mm 3 mps 716 mmHg 88%
    22:00 +9°C° 0 mm 2 mps 716 mmHg 92%
    23:00 +9°C° 0 mm 2 mps 716 mmHg 93%

    Tomorrow, 25 June, Monday

    Time Temperature Precipitation Wind Pressure Humidity
    00:00 +8°C° 0 mm 2 mps 716 mmHg 95%
    01:00 +8°C° 0 mm 2 mps 716 mmHg 96%
    02:00 +8°C° 0 mm 2 mps 716 mmHg 96%
    03:00 +8°C° 0 mm 2 mps 716 mmHg 96%
    04:00 +8°C° 0 mm 2 mps 716 mmHg 96%
    05:00 +9°C° 0 mm 2 mps 717 mmHg 92%
    06:00 +10°C° 0 mm 2 mps 717 mmHg 88%
    07:00 +12°C° 0 mm 2 mps 717 mmHg 85%
    08:00 +13°C° 0 mm 2 mps 718 mmHg 81%
    09:00 +14°C° 0 mm 2 mps 718 mmHg 77%
    10:00 +15°C° 0 mm 2 mps 718 mmHg 73%
    11:00 +16°C° 0 mm 2 mps 718 mmHg 67%
    12:00 +18°C° 0 mm 2 mps 718 mmHg 62%
    13:00 +19°C° 0 mm 2 mps 718 mmHg 57%
    14:00 +19°C° 0.1 mm 2 mps 718 mmHg 57%
    15:00 +19°C° 0.1 mm 2 mps 718 mmHg 56%
    16:00 +19°C° 0.1 mm 3 mps 718 mmHg 56%
    17:00 +18°C° 0.2 mm 2 mps 718 mmHg 62%
    18:00 +17°C° 0.2 mm 2 mps 718 mmHg 68%
    19:00 +16°C° 0.2 mm 1 mps 718 mmHg 74%
    20:00 +15°C° 0 mm 2 mps 718 mmHg 79%
    21:00 +13°C° 0 mm 2 mps 718 mmHg 83%
    22:00 +12°C° 0 mm 2 mps 718 mmHg 87%
    23:00 +12°C° 0.1 mm 2 mps 718 mmHg 89%

    Day after tomorrow, 26 June, Tuesday

    Time Temperature Precipitation Wind Pressure Humidity
    00:00 +10°C° 0.1 mm 2 mps 718 mmHg 91%
    01:00 +10°C° 0.1 mm 2 mps 718 mmHg 92%
    02:00 +10°C° 0 mm 2 mps 718 mmHg 93%
    03:00 +9°C° 0 mm 2 mps 718 mmHg 94%
    04:00 +9°C° 0 mm 2 mps 718 mmHg 94%
    05:00 +12°C° 0 mm 2 mps 718 mmHg 90%
    06:00 +13°C° 0 mm 2 mps 718 mmHg 86%
    07:00 +15°C° 0 mm 2 mps 719 mmHg 82%
    08:00 +16°C° 0 mm 3 mps 719 mmHg 74%
    09:00 +17°C° 0 mm 3 mps 719 mmHg 66%
    10:00 +19°C° 0 mm 3 mps 719 mmHg 58%
    11:00 +18°C° 0.2 mm 3 mps 719 mmHg 63%
    12:00 +18°C° 0.2 mm 3 mps 719 mmHg 67%
    13:00 +17°C° 0.2 mm 3 mps 718 mmHg 72%
    14:00 +18°C° 0.4 mm 3 mps 718 mmHg 70%
    15:00 +18°C° 0.4 mm 3 mps 718 mmHg 69%
    16:00 +19°C° 0.4 mm 4 mps 718 mmHg 68%
    17:00 +18°C° 0.3 mm 3 mps 718 mmHg 71%
    18:00 +18°C° 0.3 mm 3 mps 718 mmHg 75%
    19:00 +17°C° 0.3 mm 2 mps 718 mmHg 78%
    20:00 +16°C° 0 mm 2 mps 718 mmHg 82%
    21:00 +14°C° 0 mm 2 mps 718 mmHg 85%
    22:00 +13°C° 0 mm 2 mps 718 mmHg 88%
    23:00 +12°C° 0 mm 2 mps 718 mmHg 90%

    27 June, Wednesday

    Time Temperature Precipitation Wind Pressure Humidity
    00:00 +12°C° 0 mm 2 mps 718 mmHg 91%
    01:00 +12°C° 0 mm 2 mps 718 mmHg 92%
    02:00 +10°C° 0 mm 2 mps 718 mmHg 93%
    03:00 +10°C° 0 mm 2 mps 718 mmHg 94%
    04:00 +9°C° 0 mm 2 mps 718 mmHg 95%
    05:00 +10°C° 0 mm 2 mps 718 mmHg 91%
    06:00 +12°C° 0 mm 2 mps 718 mmHg 87%
    07:00 +14°C° 0 mm 2 mps 719 mmHg 83%
    08:00 +14°C° 0 mm 3 mps 719 mmHg 75%
    09:00 +16°C° 0 mm 3 mps 719 mmHg 67%
    10:00 +18°C° 0 mm 4 mps 719 mmHg 59%
    11:00 +18°C° 0.1 mm 4 mps 719 mmHg 56%
    12:00 +19°C° 0.1 mm 5 mps 718 mmHg 54%
    13:00 +20°C° 0.1 mm 5 mps 718 mmHg 51%
    14:00 +20°C° 0.3 mm 5 mps 718 mmHg 54%
    15:00 +19°C° 0.3 mm 5 mps 717 mmHg 57%
    16:00 +19°C° 0.3 mm 5 mps 717 mmHg 60%
    17:00 +18°C° 0.4 mm 4 mps 717 mmHg 67%
    18:00 +17°C° 0.4 mm 3 mps 717 mmHg 75%
    19:00 +16°C° 0.4 mm 3 mps 717 mmHg 82%
    20:00 +14°C° 0.3 mm 2 mps 716 mmHg 86%
    21:00 +13°C° 0.3 mm 2 mps 716 mmHg 90%
    22:00 +12°C° 0.3 mm 2 mps 716 mmHg 93%
    23:00 +12°C° 0.3 mm 2 mps 716 mmHg 95%

    28 June, Thursday

    Time Temperature Precipitation Wind Pressure Humidity
    00:00 +10°C° 0.3 mm 2 mps 716 mmHg 96%
    01:00 +10°C° 0.3 mm 2 mps 716 mmHg 97%
    02:00 +10°C° 0 mm 2 mps 716 mmHg 97%
    03:00 +10°C° 0 mm 2 mps 716 mmHg 97%
    04:00 +10°C° 0 mm 2 mps 716 mmHg 97%
    05:00 +12°C° 0.1 mm 2 mps 716 mmHg 96%
    06:00 +12°C° 0.1 mm 3 mps 716 mmHg 95%
    07:00 +12°C° 0.1 mm 3 mps 716 mmHg 93%
    08:00 +13°C° 0.2 mm 3 mps 715 mmHg 91%
    09:00 +13°C° 0.2 mm 4 mps 715 mmHg 89%
    10:00 +14°C° 0.2 mm 4 mps 715 mmHg 87%
    11:00 +14°C° 0.4 mm 4 mps 714 mmHg 87%
    12:00 +15°C° 0.4 mm 5 mps 714 mmHg 86%
    13:00 +15°C° 0.4 mm 5 mps 713 mmHg 86%
    14:00 +15°C° 1.3 mm 5 mps 712 mmHg 88%
    15:00 +15°C° 1.3 mm 5 mps 711 mmHg 90%
    16:00 +14°C° 1.3 mm 6 mps 710 mmHg 92%
    17:00 +14°C° 5.5 mm 6 mps 709 mmHg 93%
    18:00 +14°C° 5.5 mm 6 mps 709 mmHg 94%
    19:00 +14°C° 5.5 mm 7 mps 708 mmHg 95%
    20:00 +14°C° 2.1 mm 6 mps 708 mmHg 96%
    21:00 +14°C° 2.1 mm 5 mps 707 mmHg 96%
    22:00 +14°C° 2.1 mm 5 mps 707 mmHg 96%
    23:00 +14°C° 0.1 mm 4 mps 707 mmHg 96%

    29 June, Friday

    Time Temperature Precipitation Wind Pressure Humidity
    00:00 +14°C° 0.1 mm 4 mps 707 mmHg 96%
    01:00 +13°C° 0.1 mm 4 mps 707 mmHg 96%
    02:00 +13°C° 0 mm 4 mps 707 mmHg 96%
    03:00 +12°C° 0 mm 3 mps 707 mmHg 96%
    04:00 +12°C° 0 mm 3 mps 707 mmHg 97%
    05:00 +12°C° 0 mm 3 mps 707 mmHg 95%
    06:00 +13°C° 0 mm 3 mps 708 mmHg 94%
    07:00 +13°C° 0 mm 3 mps 708 mmHg 92%
    08:00 +14°C° 0 mm 3 mps 708 mmHg 87%
    09:00 +16°C° 0 mm 3 mps 709 mmHg 83%
    10:00 +17°C° 0 mm 3 mps 709 mmHg 78%
    11:00 +18°C° 0.2 mm 3 mps 709 mmHg 75%
    12:00 +20°C° 0.2 mm 3 mps 709 mmHg 72%
    13:00 +21°C° 0.2 mm 3 mps 710 mmHg 68%
    14:00 +20°C° 0.4 mm 4 mps 710 mmHg 73%
    15:00 +19°C° 0.4 mm 4 mps 710 mmHg 78%
    16:00 +17°C° 0.4 mm 5 mps 710 mmHg 82%
    17:00 +17°C° 0.2 mm 4 mps 710 mmHg 85%
    18:00 +17°C° 0.2 mm 4 mps 710 mmHg 88%
    19:00 +15°C° 0.2 mm 4 mps 710 mmHg 91%
    20:00 +14°C° 0.1 mm 3 mps 710 mmHg 92%
    21:00 +14°C° 0.1 mm 3 mps 710 mmHg 93%
    22:00 +14°C° 0.1 mm 3 mps 711 mmHg 94%
    23:00 +13°C° 0.4 mm 3 mps 711 mmHg 94%
    Show more